TimeAST,TemperatureF,Dew PointF,Humidity,Sea Level PressureIn,VisibilityMPH,Wind Direction,Wind SpeedMPH,Gust SpeedMPH,PrecipitationIn,Events,Conditions,WindDirDegrees,DateUTC
12:56 AM,80.1,73.9,81,29.96,10.0,East,6.9,-,0.00,,Scattered Clouds,90,2013-08-19 04:56:00
1:56 AM,80.1,73.0,79,29.94,10.0,ESE,3.5,-,N/A,,Scattered Clouds,110,2013-08-19 05:56:00
2:56 AM,80.1,73.9,81,29.93,10.0,Calm,Calm,-,0.00,,Scattered Clouds,0,2013-08-19 06:56:00
3:56 AM,79.0,73.9,84,29.92,10.0,ENE,13.8,18.4,N/A,,Scattered Clouds,60,2013-08-19 07:56:00
4:56 AM,80.1,75.0,85,29.92,10.0,Calm,Calm,-,0.08,,Scattered Clouds,0,2013-08-19 08:56:00
5:56 AM,79.0,75.0,88,29.93,10.0,Calm,Calm,-,N/A,,Scattered Clouds,0,2013-08-19 09:56:00
6:56 AM,80.1,75.0,85,29.94,10.0,Calm,Calm,-,N/A,,Scattered Clouds,0,2013-08-19 10:56:00
7:56 AM,82.0,75.9,82,29.95,10.0,SE,3.5,-,N/A,,Scattered Clouds,140,2013-08-19 11:56:00
8:56 AM,84.0,75.9,76,29.96,10.0,East,11.5,-,N/A,,Mostly Cloudy,80,2013-08-19 12:56:00
9:56 AM,81.0,73.9,79,29.98,9.0,ESE,6.9,-,0.00,Rain,Light Rain,110,2013-08-19 13:56:00
10:56 AM,86.0,75.0,70,29.96,10.0,ENE,9.2,-,N/A,,Scattered Clouds,60,2013-08-19 14:56:00
11:56 AM,88.0,75.0,65,29.94,10.0,NE,11.5,19.6,N/A,,Scattered Clouds,50,2013-08-19 15:56:00
12:56 PM,89.1,75.9,65,29.93,10.0,ENE,15.0,19.6,N/A,,Scattered Clouds,60,2013-08-19 16:56:00
1:56 PM,88.0,77.0,70,29.91,10.0,ENE,16.1,-,N/A,,Scattered Clouds,70,2013-08-19 17:56:00
2:56 PM,87.1,75.9,69,29.89,9.0,ENE,15.0,-,N/A,,Scattered Clouds,70,2013-08-19 18:56:00
3:56 PM,84.9,75.9,74,29.90,9.0,East,13.8,-,N/A,,Scattered Clouds,80,2013-08-19 19:56:00
4:56 PM,84.9,77.0,77,29.90,9.0,East,13.8,-,N/A,,Mostly Cloudy,80,2013-08-19 20:56:00
5:56 PM,81.0,75.9,85,29.91,9.0,East,5.8,-,0.02,,Mostly Cloudy,90,2013-08-19 21:56:00
6:56 PM,82.0,77.0,85,29.92,9.0,ENE,12.7,-,N/A,,Mostly Cloudy,70,2013-08-19 22:56:00
7:56 PM,82.0,75.9,82,29.93,10.0,East,6.9,-,N/A,,Mostly Cloudy,90,2013-08-19 23:56:00
8:56 PM,82.0,73.9,76,29.94,10.0,East,11.5,-,0.01,Rain,Light Rain,90,2013-08-20 00:56:00
9:56 PM,82.0,77.0,85,29.96,10.0,East,4.6,-,0.01,,Scattered Clouds,100,2013-08-20 01:56:00
10:56 PM,81.0,77.0,88,29.95,10.0,East,5.8,-,0.00,,Partly Cloudy,100,2013-08-20 02:56:00
11:56 PM,80.1,75.9,87,29.94,10.0,East,6.9,-,N/A,,Partly Cloudy,90,2013-08-20 03:56:00